Time,TemperatureF,DewpointF,PressureIn,WindDirection,WindDirectionDegrees,WindSpeedMPH,WindSpeedGustMPH,Humidity,HourlyPrecipIn,Conditions,Clouds,dailyrainin,SolarRadiationWatts/m^2,SoftwareType,DateUTC
2013-03-01 00:01:00,38.0,35.0,-100.00,SSW,209,12.0,21.0,88,0.00,,,0.00,1.000000,,2013-03-01 08:01:00,
2013-03-01 00:11:00,38.0,35.0,-100.00,SSW,209,12.0,21.0,88,0.00,,,0.00,1.000000,,2013-03-01 08:11:00,
2013-03-01 00:21:00,38.0,35.0,-100.00,SSW,209,12.0,21.0,88,0.00,,,0.00,1.000000,,2013-03-01 08:21:00,
2013-03-01 00:53:00,38.0,35.0,-100.00,SSW,208,12.0,22.0,89,0.00,,,0.00,1.000000,,2013-03-01 08:53:00,
2013-03-01 01:02:00,38.0,35.0,-100.00,SSW,208,12.0,22.0,89,0.00,,,0.00,1.000000,,2013-03-01 09:02:00,
2013-03-01 01:11:00,38.0,35.0,-100.00,SSW,208,12.0,22.0,89,0.00,,,0.00,1.000000,,2013-03-01 09:11:00,
2013-03-01 01:21:00,38.0,35.0,-100.00,SSW,208,12.0,22.0,89,0.00,,,0.00,1.000000,,2013-03-01 09:21:00,
2013-03-01 01:52:00,38.0,34.0,-100.00,SSW,213,10.0,22.0,85,0.00,,,0.00,1.000000,,2013-03-01 09:52:00,
2013-03-01 02:01:00,38.0,34.0,-100.00,SSW,213,10.0,22.0,85,0.00,,,0.00,1.000000,,2013-03-01 10:01:00,
2013-03-01 02:11:00,38.0,34.0,-100.00,SSW,213,10.0,22.0,85,0.00,,,0.00,1.000000,,2013-03-01 10:11:00,
2013-03-01 02:21:00,38.0,34.0,-100.00,SSW,213,10.0,22.0,85,0.00,,,0.00,1.000000,,2013-03-01 10:21:00,
2013-03-01 02:52:00,38.0,34.0,-100.00,SSW,208,11.0,19.0,87,0.00,,,0.00,1.000000,,2013-03-01 10:52:00,
2013-03-01 03:01:00,38.0,34.0,-100.00,SSW,208,11.0,19.0,87,0.00,,,0.00,1.000000,,2013-03-01 11:01:00,
2013-03-01 03:11:00,38.0,34.0,-100.00,SSW,208,11.0,19.0,87,0.00,,,0.00,1.000000,,2013-03-01 11:11:00,
2013-03-01 03:22:00,38.0,34.0,-100.00,SSW,208,11.0,19.0,87,0.00,,,0.00,1.000000,,2013-03-01 11:22:00,
2013-03-01 03:52:00,38.0,34.0,-100.00,SSW,207,12.0,19.0,85,0.00,,,0.00,1.000000,,2013-03-01 11:52:00,
2013-03-01 04:01:00,38.0,34.0,-100.00,SSW,207,12.0,19.0,85,0.00,,,0.00,1.000000,,2013-03-01 12:01:00,
2013-03-01 04:11:00,38.0,34.0,-100.00,SSW,207,12.0,19.0,85,0.00,,,0.00,1.000000,,2013-03-01 12:11:00,
2013-03-01 04:21:00,38.0,34.0,-100.00,SSW,207,12.0,19.0,85,0.00,,,0.00,1.000000,,2013-03-01 12:21:00,
2013-03-01 04:42:00,38.0,34.0,-100.00,SSW,211,11.0,17.0,87,0.00,,,0.00,1.000000,,2013-03-01 12:42:00,
2013-03-01 04:52:00,38.0,34.0,-100.00,SSW,211,11.0,17.0,87,0.00,,,0.00,1.000000,,2013-03-01 12:52:00,
2013-03-01 05:01:00,38.0,34.0,-100.00,SSW,211,11.0,17.0,87,0.00,,,0.00,1.000000,,2013-03-01 13:01:00,
2013-03-01 05:11:00,38.0,34.0,-100.00,SSW,211,11.0,17.0,87,0.00,,,0.00,1.000000,,2013-03-01 13:11:00,
2013-03-01 05:21:00,38.0,34.0,-100.00,SSW,211,11.0,17.0,87,0.00,,,0.00,1.000000,,2013-03-01 13:21:00,
2013-03-01 05:52:00,38.0,34.0,-100.00,SSW,201,11.0,17.0,85,0.00,,,0.00,1.000000,,2013-03-01 13:52:00,
2013-03-01 06:01:00,38.0,34.0,-100.00,SSW,201,11.0,17.0,85,0.00,,,0.00,1.000000,,2013-03-01 14:01:00,
2013-03-01 06:11:00,38.0,34.0,-100.00,SSW,201,11.0,17.0,85,0.00,,,0.00,1.000000,,2013-03-01 14:11:00,
2013-03-01 06:21:00,38.0,34.0,-100.00,SSW,201,11.0,17.0,85,0.00,,,0.00,1.000000,,2013-03-01 14:21:00,
2013-03-01 06:52:00,38.0,32.0,-100.00,SSW,208,10.0,17.0,79,0.00,,,0.00,1.000000,,2013-03-01 14:52:00,
2013-03-01 07:01:00,38.0,32.0,-100.00,SSW,208,10.0,17.0,79,0.00,,,0.00,1.000000,,2013-03-01 15:01:00,
2013-03-01 07:11:00,38.0,32.0,-100.00,SSW,208,10.0,17.0,79,0.00,,,0.00,1.000000,,2013-03-01 15:11:00,
2013-03-01 07:21:00,38.0,32.0,-100.00,SSW,208,10.0,17.0,79,0.00,,,0.00,1.000000,,2013-03-01 15:21:00,
2013-03-01 07:52:00,38.0,33.0,-100.00,SSW,195,9.0,19.0,81,0.00,,,0.00,14.000000,,2013-03-01 15:52:00,
2013-03-01 08:01:00,38.0,33.0,-100.00,SSW,195,9.0,19.0,81,0.00,,,0.00,14.000000,,2013-03-01 16:01:00,
2013-03-01 08:11:00,38.0,33.0,-100.00,SSW,195,9.0,19.0,81,0.00,,,0.00,14.000000,,2013-03-01 16:11:00,
2013-03-01 08:21:00,38.0,33.0,-100.00,SSW,195,9.0,19.0,81,0.00,,,0.00,14.000000,,2013-03-01 16:21:00,
2013-03-01 08:42:00,40.0,33.0,-100.00,SSW,205,8.0,15.0,76,0.00,,,0.00,85.000000,,2013-03-01 16:42:00,
2013-03-01 08:52:00,40.0,33.0,-100.00,SSW,205,8.0,15.0,76,0.00,,,0.00,85.000000,,2013-03-01 16:52:00,
2013-03-01 09:01:00,40.0,33.0,-100.00,SSW,205,8.0,15.0,76,0.00,,,0.00,85.000000,,2013-03-01 17:01:00,
2013-03-01 09:11:00,40.0,33.0,-100.00,SSW,205,8.0,15.0,76,0.00,,,0.00,85.000000,,2013-03-01 17:11:00,
2013-03-01 09:21:00,40.0,33.0,-100.00,SSW,205,8.0,15.0,76,0.00,,,0.00,85.000000,,2013-03-01 17:21:00,
2013-03-01 09:52:00,43.0,34.0,-100.00,SSW,204,10.0,18.0,70,0.00,,,0.00,277.000000,,2013-03-01 17:52:00,
2013-03-01 10:01:00,43.0,34.0,-100.00,SSW,204,10.0,18.0,70,0.00,,,0.00,277.000000,,2013-03-01 18:01:00,
2013-03-01 10:12:00,43.0,34.0,-100.00,SSW,204,10.0,18.0,70,0.00,,,0.00,277.000000,,2013-03-01 18:12:00,
2013-03-01 10:22:00,43.0,34.0,-100.00,SSW,204,10.0,18.0,70,0.00,,,0.00,277.000000,,2013-03-01 18:22:00,
2013-03-01 10:42:00,47.0,34.0,-100.00,SSW,208,12.0,20.0,60,0.00,,,0.00,301.000000,,2013-03-01 18:42:00,
2013-03-01 10:52:00,47.0,34.0,-100.00,SSW,208,12.0,20.0,60,0.00,,,0.00,301.000000,,2013-03-01 18:52:00,
2013-03-01 11:01:00,47.0,34.0,-100.00,SSW,208,12.0,20.0,60,0.00,,,0.00,301.000000,,2013-03-01 19:01:00,
2013-03-01 11:11:00,47.0,34.0,-100.00,SSW,208,12.0,20.0,60,0.00,,,0.00,301.000000,,2013-03-01 19:11:00,
2013-03-01 11:21:00,47.0,34.0,-100.00,SSW,208,12.0,20.0,60,0.00,,,0.00,301.000000,,2013-03-01 19:21:00,
2013-03-01 11:52:00,52.0,35.0,-100.00,SW,225,7.0,17.0,52,0.00,,,0.00,519.000000,,2013-03-01 19:52:00,
2013-03-01 12:01:00,52.0,35.0,-100.00,SW,225,7.0,17.0,52,0.00,,,0.00,519.000000,,2013-03-01 20:01:00,
2013-03-01 12:11:00,52.0,35.0,-100.00,SW,225,7.0,17.0,52,0.00,,,0.00,519.000000,,2013-03-01 20:11:00,
2013-03-01 12:21:00,52.0,35.0,-100.00,SW,225,7.0,17.0,52,0.00,,,0.00,519.000000,,2013-03-01 20:21:00,
2013-03-01 12:42:00,51.0,35.0,-100.00,SW,229,7.0,12.0,54,0.00,,,0.00,320.000000,,2013-03-01 20:42:00,
2013-03-01 12:52:00,51.0,35.0,-100.00,SW,229,7.0,12.0,54,0.00,,,0.00,320.000000,,2013-03-01 20:52:00,
2013-03-01 13:01:00,51.0,35.0,-100.00,SW,229,7.0,12.0,54,0.00,,,0.00,320.000000,,2013-03-01 21:01:00,
2013-03-01 13:11:00,51.0,35.0,-100.00,SW,229,7.0,12.0,54,0.00,,,0.00,320.000000,,2013-03-01 21:11:00,
2013-03-01 13:21:00,51.0,35.0,-100.00,SW,229,7.0,12.0,54,0.00,,,0.00,320.000000,,2013-03-01 21:21:00,
2013-03-01 13:52:00,56.0,34.0,-100.00,SSW,212,7.0,13.0,44,0.00,,,0.00,549.000000,,2013-03-01 21:52:00,
2013-03-01 14:01:00,56.0,34.0,-100.00,SSW,212,7.0,13.0,44,0.00,,,0.00,549.000000,,2013-03-01 22:01:00,
2013-03-01 14:11:00,56.0,34.0,-100.00,SSW,212,7.0,13.0,44,0.00,,,0.00,549.000000,,2013-03-01 22:11:00,
2013-03-01 14:21:00,56.0,34.0,-100.00,SSW,212,7.0,13.0,44,0.00,,,0.00,549.000000,,2013-03-01 22:21:00,
2013-03-01 14:42:00,58.0,30.0,-100.00,SW,221,6.0,13.0,34,0.00,,,0.00,532.000000,,2013-03-01 22:42:00,
2013-03-01 14:52:00,58.0,30.0,-100.00,SW,221,6.0,13.0,34,0.00,,,0.00,532.000000,,2013-03-01 22:52:00,
2013-03-01 15:01:00,58.0,30.0,-100.00,SW,221,6.0,13.0,34,0.00,,,0.00,532.000000,,2013-03-01 23:01:00,
2013-03-01 15:11:00,58.0,30.0,-100.00,SW,221,6.0,13.0,34,0.00,,,0.00,532.000000,,2013-03-01 23:11:00,
2013-03-01 15:21:00,58.0,30.0,-100.00,SW,221,6.0,13.0,34,0.00,,,0.00,532.000000,,2013-03-01 23:21:00,
2013-03-01 15:52:00,58.0,29.0,-100.00,SW,221,6.0,10.0,33,0.00,,,0.00,435.000000,,2013-03-01 23:52:00,
2013-03-01 16:01:00,58.0,29.0,-100.00,SW,221,6.0,10.0,33,0.00,,,0.00,435.000000,,2013-03-02 00:01:00,
2013-03-01 16:11:00,58.0,29.0,-100.00,SW,221,6.0,10.0,33,0.00,,,0.00,435.000000,,2013-03-02 00:11:00,
2013-03-01 16:21:00,58.0,29.0,-100.00,SW,221,6.0,10.0,33,0.00,,,0.00,435.000000,,2013-03-02 00:21:00,
2013-03-01 16:52:00,57.0,29.0,-100.00,SSW,213,7.0,11.0,34,0.00,,,0.00,313.000000,,2013-03-02 00:52:00,
2013-03-01 17:01:00,57.0,29.0,-100.00,SSW,213,7.0,11.0,34,0.00,,,0.00,313.000000,,2013-03-02 01:01:00,
2013-03-01 17:11:00,57.0,29.0,-100.00,SSW,213,7.0,11.0,34,0.00,,,0.00,313.000000,,2013-03-02 01:11:00,
2013-03-01 17:21:00,57.0,29.0,-100.00,SSW,213,7.0,11.0,34,0.00,,,0.00,313.000000,,2013-03-02 01:21:00,
2013-03-01 17:42:00,52.0,29.0,-100.00,SW,217,6.0,12.0,41,0.00,,,0.00,119.000000,,2013-03-02 01:42:00,
2013-03-01 17:52:00,52.0,29.0,-100.00,SW,217,6.0,12.0,41,0.00,,,0.00,119.000000,,2013-03-02 01:52:00,
2013-03-01 18:01:00,52.0,29.0,-100.00,SW,217,6.0,12.0,41,0.00,,,0.00,119.000000,,2013-03-02 02:01:00,
2013-03-01 18:11:00,52.0,29.0,-100.00,SW,217,6.0,12.0,41,0.00,,,0.00,119.000000,,2013-03-02 02:11:00,
2013-03-01 18:21:00,52.0,29.0,-100.00,SW,217,6.0,12.0,41,0.00,,,0.00,119.000000,,2013-03-02 02:21:00,
2013-03-01 18:42:00,49.0,29.0,-100.00,SSW,213,6.0,9.0,45,0.00,,,0.00,9.000000,,2013-03-02 02:42:00,
2013-03-01 18:52:00,49.0,29.0,-100.00,SSW,213,6.0,9.0,45,0.00,,,0.00,9.000000,,2013-03-02 02:52:00,
2013-03-01 19:01:00,49.0,29.0,-100.00,SSW,213,6.0,9.0,45,0.00,,,0.00,9.000000,,2013-03-02 03:01:00,
2013-03-01 19:11:00,49.0,29.0,-100.00,SSW,213,6.0,9.0,45,0.00,,,0.00,9.000000,,2013-03-02 03:11:00,
2013-03-01 19:21:00,49.0,29.0,-100.00,SSW,213,6.0,9.0,45,0.00,,,0.00,9.000000,,2013-03-02 03:21:00,
2013-03-01 19:52:00,48.0,27.0,-100.00,South,181,5.0,7.0,43,-99.99,,,0.00,1.000000,,2013-03-02 03:52:00,
2013-03-01 20:52:00,46.0,26.0,-100.00,SW,215,5.0,7.0,46,-99.99,,,0.00,1.000000,,2013-03-02 04:52:00,
2013-03-01 21:52:00,45.0,29.0,-100.00,SSW,210,7.0,9.0,54,-99.99,,,0.00,1.000000,,2013-03-02 05:52:00,
2013-03-01 22:52:00,44.0,30.0,-100.00,SSW,209,8.0,11.0,58,-99.99,,,0.00,1.000000,,2013-03-02 06:52:00,
2013-03-01 23:52:00,42.0,27.0,-100.00,SSW,207,8.0,12.0,56,-99.99,,,-99.99,1.000000,,2013-03-02 07:52:00,